When you browse on this site, cookies collect data to enhance your experience and personalize the content and advertising you see.
Visit our Privacy Policy to learn more. By continuing to use the site, you agree to this use of cookies and data.
  • In Latvia
  • List of Countries
  • For 7 days
  • Water Temperature
  • Weather Map
  • Weather Widgets
  • user-avatar
    Login

    Hourly Weather Persianovskiy

    Today, 22 October, Tuesday

    Time Temperature Precipitation Wind Pressure Humidity
    00:00 +13°C° 0 mm 2 mps 764 mmHg 62%
    01:00 +13°C° 0 mm 2 mps 764 mmHg 64%
    02:00 +12°C° 0 mm 1 mps 764 mmHg 65%
    03:00 +12°C° 0 mm 1 mps 764 mmHg 69%
    04:00 +12°C° 0 mm 1 mps 764 mmHg 70%
    05:00 +11°C° 0 mm 1 mps 764 mmHg 71%
    06:00 +11°C° 0 mm 1 mps 764 mmHg 73%
    07:00 +12°C° 0 mm 1 mps 764 mmHg 69%
    08:00 +13°C° 0 mm 1 mps 764 mmHg 66%
    09:00 +14°C° 0 mm 1 mps 764 mmHg 63%
    10:00 +16°C° 0 mm 1 mps 764 mmHg 57%
    11:00 +18°C° 0 mm 1 mps 764 mmHg 52%
    12:00 +20°C° 0 mm 1 mps 764 mmHg 46%
    13:00 +20°C° 0 mm 1 mps 764 mmHg 44%
    14:00 +21°C° 0 mm 1 mps 763 mmHg 42%
    15:00 +21°C° 0 mm 1 mps 763 mmHg 39%
    16:00 +20°C° 0 mm 1 mps 763 mmHg 43%
    17:00 +19°C° 0 mm 1 mps 763 mmHg 46%
    18:00 +18°C° 0 mm 1 mps 763 mmHg 49%
    19:00 +16°C° 0 mm 0 mps 763 mmHg 50%
    20:00 +15°C° 0 mm 0 mps 763 mmHg 51%
    21:00 +15°C° 0 mm 0 mps 763 mmHg 52%
    22:00 +15°C° 0 mm 0 mps 763 mmHg 52%
    23:00 +15°C° 0 mm 0 mps 763 mmHg 53%

    Tomorrow, 23 October, Wednesday

    Time Temperature Precipitation Wind Pressure Humidity
    00:00 +15°C° 0 mm 0 mps 762 mmHg 54%
    01:00 +14°C° 0 mm 0 mps 762 mmHg 55%
    02:00 +14°C° 0 mm 0 mps 762 mmHg 57%
    03:00 +13°C° 0 mm 0 mps 762 mmHg 58%
    04:00 +14°C° 0 mm 1 mps 762 mmHg 60%
    05:00 +14°C° 0 mm 1 mps 762 mmHg 61%
    06:00 +14°C° 0 mm 1 mps 762 mmHg 63%
    07:00 +15°C° 0 mm 1 mps 762 mmHg 60%
    08:00 +15°C° 0 mm 1 mps 763 mmHg 58%
    09:00 +16°C° 0 mm 1 mps 763 mmHg 55%
    10:00 +19°C° 0 mm 1 mps 763 mmHg 52%
    11:00 +20°C° 0 mm 1 mps 763 mmHg 48%
    12:00 +19°C° 0 mm 0 mps 762 mmHg 44%
    13:00 +20°C° 0 mm 0 mps 762 mmHg 44%
    14:00 +20°C° 0 mm 0 mps 762 mmHg 43%
    15:00 +20°C° 0 mm 0 mps 762 mmHg 42%
    16:00 +19°C° 0 mm 0 mps 762 mmHg 46%
    17:00 +18°C° 0 mm 0 mps 762 mmHg 49%
    18:00 +17°C° 0 mm 0 mps 762 mmHg 53%
    19:00 +17°C° 0 mm 0 mps 762 mmHg 54%
    20:00 +18°C° 0 mm 1 mps 762 mmHg 56%
    21:00 +18°C° 0 mm 1 mps 762 mmHg 57%
    22:00 +16°C° 0 mm 1 mps 762 mmHg 58%
    23:00 +16°C° 0 mm 1 mps 762 mmHg 59%

    Day after tomorrow, 24 October, Thursday

    Time Temperature Precipitation Wind Pressure Humidity
    00:00 +15°C° 0 mm 1 mps 762 mmHg 60%
    01:00 +15°C° 0 mm 1 mps 761 mmHg 61%
    02:00 +14°C° 0 mm 1 mps 761 mmHg 61%
    03:00 +13°C° 0 mm 0 mps 761 mmHg 62%
    04:00 +13°C° 0 mm 0 mps 761 mmHg 63%
    05:00 +12°C° 0 mm 0 mps 761 mmHg 63%
    06:00 +13°C° 0 mm 1 mps 761 mmHg 63%
    07:00 +14°C° 0 mm 1 mps 761 mmHg 60%
    08:00 +15°C° 0 mm 1 mps 761 mmHg 56%
    09:00 +16°C° 0 mm 1 mps 761 mmHg 52%
    10:00 +17°C° 0 mm 2 mps 761 mmHg 48%
    11:00 +19°C° 0 mm 2 mps 761 mmHg 43%
    12:00 +20°C° 0 mm 2 mps 761 mmHg 39%
    13:00 +21°C° 0 mm 2 mps 761 mmHg 38%
    14:00 +21°C° 0 mm 2 mps 760 mmHg 37%
    15:00 +22°C° 0 mm 1 mps 760 mmHg 36%
    16:00 +21°C° 0 mm 1 mps 760 mmHg 40%
    17:00 +20°C° 0 mm 1 mps 760 mmHg 43%
    18:00 +16°C° 0 mm 0 mps 759 mmHg 47%
    19:00 +18°C° 0 mm 1 mps 760 mmHg 48%
    20:00 +16°C° 0 mm 1 mps 760 mmHg 49%
    21:00 +16°C° 0 mm 1 mps 760 mmHg 50%
    22:00 +15°C° 0 mm 1 mps 759 mmHg 51%
    23:00 +14°C° 0 mm 1 mps 759 mmHg 52%

    25 October, Friday

    Time Temperature Precipitation Wind Pressure Humidity
    00:00 +14°C° 0 mm 1 mps 759 mmHg 53%
    01:00 +14°C° 0 mm 1 mps 759 mmHg 54%
    02:00 +13°C° 0 mm 1 mps 759 mmHg 55%
    03:00 +13°C° 0 mm 1 mps 759 mmHg 56%
    04:00 +12°C° 0 mm 1 mps 759 mmHg 57%
    05:00 +12°C° 0 mm 1 mps 759 mmHg 59%
    06:00 +10°C° 0 mm 2 mps 759 mmHg 60%
    07:00 +12°C° 0 mm 2 mps 759 mmHg 58%
    08:00 +13°C° 0 mm 2 mps 759 mmHg 55%
    09:00 +14°C° 0 mm 2 mps 759 mmHg 53%
    10:00 +16°C° 0 mm 2 mps 759 mmHg 48%
    11:00 +17°C° 0 mm 3 mps 759 mmHg 44%
    12:00 +19°C° 0 mm 3 mps 759 mmHg 40%
    13:00 +19°C° 0 mm 3 mps 759 mmHg 39%
    14:00 +20°C° 0 mm 3 mps 759 mmHg 38%
    15:00 +20°C° 0 mm 3 mps 759 mmHg 37%
    16:00 +19°C° 0 mm 3 mps 759 mmHg 41%
    17:00 +18°C° 0 mm 3 mps 759 mmHg 46%
    18:00 +16°C° 0 mm 3 mps 759 mmHg 51%
    19:00 +14°C° 0 mm 3 mps 760 mmHg 53%
    20:00 +14°C° 0 mm 3 mps 760 mmHg 55%
    21:00 +13°C° 0 mm 3 mps 760 mmHg 58%
    22:00 +12°C° 0 mm 3 mps 760 mmHg 58%
    23:00 +12°C° 0 mm 3 mps 760 mmHg 59%

    26 October, Saturday

    Time Temperature Precipitation Wind Pressure Humidity
    00:00 +11°C° 0 mm 3 mps 760 mmHg 59%
    01:00 +11°C° 0 mm 3 mps 760 mmHg 59%
    02:00 +10°C° 0 mm 3 mps 760 mmHg 59%
    03:00 +10°C° 0 mm 3 mps 760 mmHg 60%
    04:00 +10°C° 0 mm 3 mps 760 mmHg 60%
    05:00 +10°C° 0 mm 3 mps 760 mmHg 60%
    06:00 +9°C° 0 mm 3 mps 760 mmHg 61%
    07:00 +10°C° 0 mm 3 mps 760 mmHg 58%
    08:00 +11°C° 0 mm 3 mps 760 mmHg 56%
    09:00 +12°C° 0 mm 4 mps 761 mmHg 53%
    10:00 +14°C° 0 mm 4 mps 760 mmHg 50%
    11:00 +17°C° 0 mm 4 mps 760 mmHg 47%
    12:00 +18°C° 0 mm 4 mps 760 mmHg 44%
    13:00 +19°C° 0 mm 4 mps 760 mmHg 43%
    14:00 +19°C° 0 mm 4 mps 760 mmHg 42%
    15:00 +19°C° 0 mm 4 mps 760 mmHg 42%
    16:00 +18°C° 0 mm 4 mps 760 mmHg 46%
    17:00 +17°C° 0 mm 3 mps 759 mmHg 51%
    18:00 +16°C° 0 mm 3 mps 759 mmHg 56%
    19:00 +14°C° 0 mm 3 mps 759 mmHg 62%
    20:00 +13°C° 0 mm 3 mps 759 mmHg 68%
    21:00 +13°C° 0 mm 3 mps 759 mmHg 74%
    22:00 +13°C° 0 mm 3 mps 759 mmHg 76%
    23:00 +13°C° 0 mm 3 mps 759 mmHg 78%

    27 October, Sunday

    Time Temperature Precipitation Wind Pressure Humidity
    00:00 +13°C° 0 mm 3 mps 759 mmHg 80%
    01:00 +14°C° 0 mm 2 mps 759 mmHg 79%
    02:00 +14°C° 0 mm 2 mps 759 mmHg 77%
    03:00 +14°C° 0 mm 2 mps 759 mmHg 76%
    04:00 +14°C° 0 mm 2 mps 759 mmHg 77%
    05:00 +14°C° 0 mm 2 mps 759 mmHg 78%
    06:00 +13°C° 0 mm 2 mps 759 mmHg 80%
    07:00 +14°C° 0 mm 2 mps 759 mmHg 77%
    08:00 +14°C° 0 mm 2 mps 759 mmHg 74%
    09:00 +15°C° 0 mm 2 mps 759 mmHg 71%
    10:00 +16°C° 0 mm 2 mps 759 mmHg 67%
    11:00 +18°C° 0 mm 2 mps 758 mmHg 62%
    12:00 +19°C° 0 mm 2 mps 758 mmHg 57%
    13:00 +20°C° 0 mm 2 mps 758 mmHg 54%
    14:00 +20°C° 0 mm 2 mps 758 mmHg 51%
    15:00 +21°C° 0 mm 2 mps 757 mmHg 48%
    16:00 +20°C° 0 mm 1 mps 757 mmHg 51%
    17:00 +19°C° 0 mm 1 mps 757 mmHg 55%
    18:00 +18°C° 0 mm 1 mps 757 mmHg 58%
    19:00 +16°C° 0 mm 1 mps 757 mmHg 60%
    20:00 +16°C° 0 mm 1 mps 757 mmHg 62%
    21:00 +15°C° 0 mm 1 mps 757 mmHg 64%
    22:00 +15°C° 0 mm 1 mps 757 mmHg 65%
    23:00 +14°C° 0 mm 1 mps 757 mmHg 66%

    28 October, Monday

    Time Temperature Precipitation Wind Pressure Humidity
    00:00 +14°C° 0 mm 1 mps 757 mmHg 68%
    01:00 +13°C° 0 mm 1 mps 756 mmHg 70%
    02:00 +13°C° 0 mm 1 mps 756 mmHg 72%
    03:00 +13°C° 0 mm 2 mps 756 mmHg 74%
    04:00 +12°C° 0 mm 2 mps 756 mmHg 77%
    05:00 +12°C° 0 mm 2 mps 756 mmHg 80%
    06:00 +10°C° 0 mm 2 mps 756 mmHg 83%
    07:00 +12°C° 0 mm 2 mps 756 mmHg 79%
    08:00 +12°C° 0 mm 3 mps 756 mmHg 75%
    09:00 +13°C° 0 mm 3 mps 756 mmHg 71%
    10:00 +15°C° 0 mm 4 mps 756 mmHg 64%
    11:00 +18°C° 0 mm 4 mps 756 mmHg 56%
    12:00 +19°C° 0 mm 4 mps 756 mmHg 49%
    13:00 +19°C° 0 mm 5 mps 756 mmHg 48%
    14:00 +20°C° 0 mm 5 mps 755 mmHg 48%
    15:00 +20°C° 0 mm 6 mps 755 mmHg 47%
    16:00 +19°C° 0 mm 5 mps 755 mmHg 52%
    17:00 +16°C° 0 mm 5 mps 755 mmHg 56%
    18:00 +15°C° 0 mm 4 mps 755 mmHg 61%
    19:00 +14°C° 0 mm 4 mps 755 mmHg 64%
    20:00 +14°C° 0 mm 4 mps 755 mmHg 67%
    21:00 +13°C° 0 mm 4 mps 756 mmHg 70%
    22:00 +13°C° 0 mm 4 mps 756 mmHg 73%
    23:00 +12°C° 0 mm 3 mps 756 mmHg 77%
    Show more